Вернуться в каталог

HULIANWANG DIGUI-76

АктивенСвязьLEO
NORAD 65308·PAYLOAD·🇨🇳 China

Запущен Aug 25, 2025 с Wenchang Space Launch Site

Loading…

Ближайшие Пролёты (ближайшие 24 часа)

TLE

СвежийSource: Space-Track

Эпоха: Sep 14, 2026, 22:14 UTC

1 65308U 25187D   26257.92691057 -.00000096  00000-0  60268-4 0  9998
2 65308  49.9996 244.1301 0000706 330.3016  29.7816 13.29326535 51631

Отслеживайте HULIANWANG DIGUI-76 в реальном времени с AllMySat

Download on the App Store